Time,TemperatureF,DewpointF,PressureIn,WindDirection,WindDirectionDegrees,WindSpeedMPH,WindSpeedGustMPH,Humidity,HourlyPrecipIn,Conditions,Clouds,dailyrainin,SoftwareType,DateUTC
2013-06-04 00:13:00,70.7,70.0,29.76,WNW,296,0.0,0.0,97,0.00,,,1.25,weatherlink.com 1.10,2013-06-04 04:13:00,
2013-06-04 00:29:00,70.6,70.0,29.75,WNW,288,0.0,0.0,97,0.00,,,1.25,weatherlink.com 1.10,2013-06-04 04:29:00,
2013-06-04 00:44:00,70.6,70.0,29.75,WNW,288,0.0,0.0,97,0.00,,,1.25,weatherlink.com 1.10,2013-06-04 04:44:00,
2013-06-04 00:59:00,70.5,70.0,29.75,WSW,245,0.0,1.0,97,0.00,,,1.25,weatherlink.com 1.10,2013-06-04 04:59:00,
2013-06-04 01:14:00,70.5,70.0,29.74,West,259,1.0,2.0,97,0.00,,,0.00,weatherlink.com 1.10,2013-06-04 05:14:00,
2013-06-04 01:29:00,70.5,70.0,29.73,NW,307,1.0,1.0,97,0.00,,,0.00,weatherlink.com 1.10,2013-06-04 05:29:00,
2013-06-04 01:44:00,70.4,70.0,29.73,WNW,286,1.0,2.0,97,0.00,,,0.00,weatherlink.com 1.10,2013-06-04 05:44:00,
2013-06-04 02:02:00,69.8,69.0,29.73,WNW,296,1.0,1.0,97,0.00,,,0.00,weatherlink.com 1.10,2013-06-04 06:02:00,
2013-06-04 02:15:00,69.7,69.0,29.73,West,260,0.0,1.0,97,0.00,,,0.00,weatherlink.com 1.10,2013-06-04 06:15:00,
2013-06-04 02:31:00,69.9,69.0,29.73,WSW,248,2.0,2.0,97,0.00,,,0.00,weatherlink.com 1.10,2013-06-04 06:31:00,
2013-06-04 02:45:00,69.8,69.0,29.73,SW,219,0.0,1.0,97,0.00,,,0.00,weatherlink.com 1.10,2013-06-04 06:45:00,
2013-06-04 03:02:00,69.8,69.0,29.73,SW,219,1.0,1.0,97,0.00,,,0.00,weatherlink.com 1.10,2013-06-04 07:02:00,
2013-06-04 03:16:00,69.9,69.0,29.73,NW,309,0.0,1.0,97,0.00,,,0.00,weatherlink.com 1.10,2013-06-04 07:16:00,
2013-06-04 03:31:00,70.0,69.0,29.73,NW,315,0.0,2.0,97,0.00,,,0.00,weatherlink.com 1.10,2013-06-04 07:31:00,
2013-06-04 03:45:00,70.2,69.0,29.73,West,277,0.0,2.0,97,0.00,,,0.00,weatherlink.com 1.10,2013-06-04 07:45:00,
2013-06-04 04:02:00,69.8,69.0,29.72,West,277,0.0,1.0,97,0.00,,,0.00,weatherlink.com 1.10,2013-06-04 08:02:00,
2013-06-04 04:16:00,69.4,69.0,29.71,WNW,293,1.0,1.0,97,0.00,,,0.00,weatherlink.com 1.10,2013-06-04 08:16:00,
2013-06-04 04:31:00,69.4,69.0,29.71,WNW,291,2.0,3.0,97,0.00,,,0.00,weatherlink.com 1.10,2013-06-04 08:31:00,
2013-06-04 04:47:00,69.5,69.0,29.73,NNE,25,0.0,2.0,97,0.01,,,0.01,weatherlink.com 1.10,2013-06-04 08:47:00,
2013-06-04 05:02:00,69.6,69.0,29.73,North,352,0.0,0.0,97,0.01,,,0.01,weatherlink.com 1.10,2013-06-04 09:02:00,
2013-06-04 05:16:00,69.7,69.0,29.73,WNW,302,0.0,1.0,97,0.01,,,0.01,weatherlink.com 1.10,2013-06-04 09:16:00,
2013-06-04 05:32:00,69.6,69.0,29.73,NW,312,1.0,2.0,97,0.01,,,0.01,weatherlink.com 1.10,2013-06-04 09:32:00,
2013-06-04 05:47:00,-999.0,-99.9,29.74,North,-999,-999.0,-999.0,-999,0.00,,,0.01,weatherlink.com 1.10,2013-06-04 09:47:00,
2013-06-04 06:02:00,-999.0,-99.9,29.75,North,-999,-999.0,-999.0,-999,0.00,,,0.01,weatherlink.com 1.10,2013-06-04 10:02:00,
2013-06-04 06:17:00,-999.0,-99.9,29.75,North,-999,-999.0,-999.0,-999,0.00,,,0.01,weatherlink.com 1.10,2013-06-04 10:17:00,
2013-06-04 06:32:00,-999.0,-99.9,29.76,North,-999,-999.0,-999.0,-999,0.00,,,0.01,weatherlink.com 1.10,2013-06-04 10:32:00,
2013-06-04 06:47:00,-999.0,-99.9,29.77,North,-999,-999.0,-999.0,-999,0.00,,,0.01,weatherlink.com 1.10,2013-06-04 10:47:00,
2013-06-04 07:03:00,69.4,69.0,29.77,NNW,338,1.0,4.0,97,0.00,,,0.01,weatherlink.com 1.10,2013-06-04 11:03:00,
2013-06-04 07:17:00,69.6,69.0,29.77,North,353,2.0,2.0,97,0.00,,,0.01,weatherlink.com 1.10,2013-06-04 11:17:00,
2013-06-04 07:33:00,70.1,69.0,29.77,NNE,30,3.0,3.0,97,0.00,,,0.01,weatherlink.com 1.10,2013-06-04 11:33:00,
2013-06-04 07:48:00,70.7,70.0,29.78,NE,40,4.0,8.0,97,0.00,,,0.01,weatherlink.com 1.10,2013-06-04 11:48:00,
2013-06-04 08:03:00,71.4,71.0,29.78,ENE,65,4.0,5.0,97,0.00,,,0.01,weatherlink.com 1.10,2013-06-04 12:03:00,
2013-06-04 08:18:00,71.6,70.0,29.78,NNE,31,4.0,8.0,96,0.00,,,0.01,weatherlink.com 1.10,2013-06-04 12:18:00,
2013-06-04 08:33:00,71.8,70.0,29.79,ENE,63,5.0,6.0,95,0.00,,,0.01,weatherlink.com 1.10,2013-06-04 12:33:00,
2013-06-04 08:48:00,71.9,71.0,29.80,NNE,25,7.0,7.0,95,0.00,,,0.01,weatherlink.com 1.10,2013-06-04 12:48:00,
2013-06-04 09:04:00,71.9,70.0,29.80,North,359,5.0,9.0,94,0.00,,,0.01,weatherlink.com 1.10,2013-06-04 13:04:00,
2013-06-04 09:19:00,72.1,70.0,29.81,East,82,9.0,11.0,94,0.00,,,0.01,weatherlink.com 1.10,2013-06-04 13:19:00,
2013-06-04 09:34:00,72.4,71.0,29.81,ENE,64,7.0,10.0,94,0.00,,,0.01,weatherlink.com 1.10,2013-06-04 13:34:00,
2013-06-04 09:49:00,73.0,71.0,29.82,ENE,70,5.0,10.0,93,0.00,,,0.01,weatherlink.com 1.10,2013-06-04 13:49:00,
2013-06-04 10:05:00,73.1,71.0,29.82,ENE,66,7.0,9.0,92,0.00,,,0.01,weatherlink.com 1.10,2013-06-04 14:05:00,
2013-06-04 10:19:00,73.2,71.0,29.83,NE,41,4.0,9.0,91,0.00,,,0.01,weatherlink.com 1.10,2013-06-04 14:19:00,
2013-06-04 10:34:00,73.9,71.0,29.83,NE,34,3.0,7.0,91,0.00,,,0.01,weatherlink.com 1.10,2013-06-04 14:34:00,
2013-06-04 10:51:00,74.4,71.0,29.83,North,5,3.0,6.0,89,0.00,,,0.01,weatherlink.com 1.10,2013-06-04 14:51:00,
2013-06-04 11:05:00,75.1,71.0,29.84,NE,41,5.0,6.0,88,0.00,,,0.01,weatherlink.com 1.10,2013-06-04 15:05:00,
2013-06-04 11:21:00,75.3,71.0,29.84,ENE,58,4.0,9.0,87,0.00,,,0.01,weatherlink.com 1.10,2013-06-04 15:21:00,
2013-06-04 11:35:00,75.9,72.0,29.84,NNE,31,6.0,7.0,87,0.00,,,0.01,weatherlink.com 1.10,2013-06-04 15:35:00,
2013-06-04 11:51:00,76.8,72.0,29.83,ENE,64,11.0,14.0,84,0.00,,,0.01,weatherlink.com 1.10,2013-06-04 15:51:00,
2013-06-04 12:06:00,78.4,72.0,29.84,ENE,74,8.0,11.0,81,0.00,,,0.01,weatherlink.com 1.10,2013-06-04 16:06:00,
2013-06-04 12:21:00,77.9,71.0,29.84,ENE,72,7.0,13.0,80,0.00,,,0.01,weatherlink.com 1.10,2013-06-04 16:21:00,
2013-06-04 12:36:00,78.6,72.0,29.85,ENE,66,11.0,13.0,79,0.00,,,0.01,weatherlink.com 1.10,2013-06-04 16:36:00,
2013-06-04 12:51:00,79.2,71.0,29.84,ENE,66,6.0,11.0,76,0.00,,,0.01,weatherlink.com 1.10,2013-06-04 16:51:00,
2013-06-04 13:06:00,79.8,71.0,29.83,ENE,74,11.0,13.0,75,0.00,,,0.01,weatherlink.com 1.10,2013-06-04 17:06:00,
2013-06-04 13:21:00,80.6,71.0,29.83,ESE,112,9.0,13.0,72,0.00,,,0.01,weatherlink.com 1.10,2013-06-04 17:21:00,
2013-06-04 13:36:00,80.5,72.0,29.83,East,93,9.0,17.0,75,0.00,,,0.01,weatherlink.com 1.10,2013-06-04 17:36:00,
2013-06-04 13:51:00,79.2,71.0,29.84,ENE,63,15.0,19.0,75,0.00,,,0.01,weatherlink.com 1.10,2013-06-04 17:51:00,
2013-06-04 14:07:00,78.5,70.0,29.83,ENE,64,10.0,19.0,76,0.00,,,0.01,weatherlink.com 1.10,2013-06-04 18:07:00,
2013-06-04 14:22:00,78.5,71.0,29.83,ENE,73,10.0,15.0,77,0.00,,,0.01,weatherlink.com 1.10,2013-06-04 18:22:00,
2013-06-04 14:37:00,78.0,70.0,29.84,ESE,110,10.0,18.0,77,0.00,,,0.01,weatherlink.com 1.10,2013-06-04 18:37:00,
2013-06-04 14:52:00,78.0,70.0,29.84,ENE,77,12.0,15.0,76,0.00,,,0.01,weatherlink.com 1.10,2013-06-04 18:52:00,
2013-06-04 15:07:00,78.7,70.0,29.83,East,83,12.0,16.0,74,0.00,,,0.01,weatherlink.com 1.10,2013-06-04 19:07:00,
2013-06-04 15:22:00,79.2,69.0,29.83,ENE,72,11.0,18.0,72,0.00,,,0.01,weatherlink.com 1.10,2013-06-04 19:22:00,
2013-06-04 15:37:00,79.4,70.0,29.82,East,98,12.0,15.0,72,0.00,,,0.01,weatherlink.com 1.10,2013-06-04 19:37:00,
2013-06-04 15:52:00,79.6,69.0,29.82,East,98,14.0,17.0,71,0.00,,,0.01,weatherlink.com 1.10,2013-06-04 19:52:00,
2013-06-04 16:08:00,79.8,68.0,29.82,NE,42,6.0,13.0,68,0.00,,,0.01,weatherlink.com 1.10,2013-06-04 20:08:00,
2013-06-04 16:23:00,79.3,68.0,29.82,ESE,121,10.0,15.0,69,0.00,,,0.01,weatherlink.com 1.10,2013-06-04 20:23:00,
2013-06-04 16:38:00,78.9,68.0,29.82,East,84,9.0,17.0,70,0.00,,,0.01,weatherlink.com 1.10,2013-06-04 20:38:00,
2013-06-04 16:53:00,78.9,68.0,29.82,SE,129,8.0,14.0,70,0.00,,,0.01,weatherlink.com 1.10,2013-06-04 20:53:00,
2013-06-04 17:08:00,78.6,69.0,29.82,ESE,121,8.0,16.0,72,0.00,,,0.01,weatherlink.com 1.10,2013-06-04 21:08:00,
2013-06-04 17:23:00,78.3,68.0,29.82,ESE,103,17.0,17.0,71,0.00,,,0.01,weatherlink.com 1.10,2013-06-04 21:23:00,
2013-06-04 17:38:00,77.9,68.0,29.83,ESE,104,8.0,15.0,71,0.00,,,0.01,weatherlink.com 1.10,2013-06-04 21:38:00,
2013-06-04 17:53:00,78.1,68.0,29.83,SSE,150,6.0,12.0,72,0.00,,,0.01,weatherlink.com 1.10,2013-06-04 21:53:00,
2013-06-04 18:09:00,77.9,67.0,29.83,ENE,71,6.0,13.0,69,0.00,,,0.01,weatherlink.com 1.10,2013-06-04 22:09:00,
2013-06-04 18:24:00,77.6,67.0,29.83,East,84,12.0,15.0,70,0.00,,,0.01,weatherlink.com 1.10,2013-06-04 22:24:00,
2013-06-04 18:39:00,77.1,67.0,29.83,East,82,7.0,13.0,72,0.00,,,0.01,weatherlink.com 1.10,2013-06-04 22:39:00,
2013-06-04 18:54:00,76.6,67.0,29.84,East,88,17.0,17.0,73,0.00,,,0.01,weatherlink.com 1.10,2013-06-04 22:54:00,
2013-06-04 19:10:00,75.9,68.0,29.84,ESE,117,5.0,13.0,76,0.00,,,0.01,weatherlink.com 1.10,2013-06-04 23:10:00,
2013-06-04 19:24:00,76.1,68.0,29.85,ENE,75,5.0,9.0,76,0.00,,,0.01,weatherlink.com 1.10,2013-06-04 23:24:00,
2013-06-04 19:39:00,75.7,68.0,29.85,East,84,9.0,11.0,77,0.00,,,0.01,weatherlink.com 1.10,2013-06-04 23:39:00,
2013-06-04 19:54:00,75.2,68.0,29.85,ESE,107,8.0,9.0,78,0.00,,,0.01,weatherlink.com 1.10,2013-06-04 23:54:00,
2013-06-04 20:10:00,74.3,68.0,29.85,ESE,112,3.0,9.0,80,0.00,,,0.01,weatherlink.com 1.10,2013-06-05 00:10:00,
2013-06-04 20:25:00,73.5,67.0,29.86,East,99,1.0,7.0,81,0.00,,,0.01,weatherlink.com 1.10,2013-06-05 00:25:00,
2013-06-04 20:41:00,72.9,67.0,29.87,East,89,1.0,3.0,82,0.00,,,0.01,weatherlink.com 1.10,2013-06-05 00:41:00,
2013-06-04 20:55:00,72.4,67.0,29.87,ESE,110,2.0,3.0,84,0.00,,,0.01,weatherlink.com 1.10,2013-06-05 00:55:00,
2013-06-04 21:11:00,72.0,67.0,29.88,ESE,110,1.0,7.0,85,0.00,,,0.01,weatherlink.com 1.10,2013-06-05 01:11:00,
2013-06-04 21:25:00,71.5,67.0,29.89,East,98,3.0,4.0,85,0.00,,,0.01,weatherlink.com 1.10,2013-06-05 01:25:00,
2013-06-04 21:41:00,70.8,67.0,29.89,East,101,4.0,4.0,86,0.00,,,0.01,weatherlink.com 1.10,2013-06-05 01:41:00,
2013-06-04 21:56:00,70.3,66.0,29.89,East,86,1.0,5.0,86,0.00,,,0.01,weatherlink.com 1.10,2013-06-05 01:56:00,
2013-06-04 22:11:00,70.0,66.0,29.90,East,86,3.0,4.0,87,0.00,,,0.01,weatherlink.com 1.10,2013-06-05 02:11:00,
2013-06-04 22:26:00,69.9,66.0,29.91,ENE,63,4.0,5.0,87,0.00,,,0.01,weatherlink.com 1.10,2013-06-05 02:26:00,
2013-06-04 22:41:00,69.8,66.0,29.90,East,91,2.0,6.0,86,0.00,,,0.01,weatherlink.com 1.10,2013-06-05 02:41:00,
2013-06-04 22:56:00,69.7,66.0,29.91,ENE,76,3.0,4.0,87,0.00,,,0.01,weatherlink.com 1.10,2013-06-05 02:56:00,
2013-06-04 23:11:00,69.5,66.0,29.90,ENE,68,6.0,6.0,87,0.00,,,0.01,weatherlink.com 1.10,2013-06-05 03:11:00,
2013-06-04 23:26:00,69.7,66.0,29.91,ENE,73,3.0,5.0,87,0.00,,,0.01,weatherlink.com 1.10,2013-06-05 03:26:00,
2013-06-04 23:42:00,70.0,66.0,29.91,SE,140,1.0,6.0,86,0.00,,,0.01,weatherlink.com 1.10,2013-06-05 03:42:00,
2013-06-04 23:57:00,70.1,66.0,29.91,SE,124,1.0,7.0,86,0.00,,,0.01,weatherlink.com 1.10,2013-06-05 03:57:00,